OHEEK EFTU-ESSB

Flight info

Callsign OHEEK
Flight time N/A
Altitude 4000
Route JUTKI EFMA BOSON
Aircraft P28B/L-V/N

Departure

Time 2026-05-05 13:42
Airport Turku Airport (EFTU)

Arrival

Time N/A
Airport Stockholm-Bromma Airport (ESSB)
Time Latitude Longitude Altitude Speed Heading
2026-05-05 13:34 60.51306 22.27583 162 ft 0 kts 174°
2026-05-05 13:39 60.51295 22.27576 162 ft 8 kts 227°
2026-05-05 13:39 60.51290 22.27555 162 ft 3 kts 274°
2026-05-05 13:40 60.51334 22.27506 162 ft 0 kts 327°
2026-05-05 13:40 60.51348 22.27590 163 ft 15 kts 81°
2026-05-05 13:40 60.51362 22.27802 163 ft 15 kts 54°
2026-05-05 13:40 60.51395 22.27848 163 ft 0 kts 12°
2026-05-05 13:41 60.51410 22.27853 163 ft 9 kts
2026-05-05 13:41 60.51465 22.27778 163 ft 10 kts 294°
2026-05-05 13:41 60.51471 22.27608 164 ft 23 kts 265°
2026-05-05 13:41 60.51443 22.26977 174 ft 65 kts 264°
2026-05-05 13:42 60.51410 22.25955 400 ft 77 kts 266°
2026-05-05 13:42 60.51372 22.24730 548 ft 98 kts 267°
2026-05-05 13:42 60.51285 22.23309 822 ft 106 kts 246°
2026-05-05 13:42 60.50603 22.22858 1266 ft 120 kts 172°
2026-05-05 13:43 60.49739 22.23196 1486 ft 127 kts 181°
2026-05-05 13:43 60.48864 22.23364 1801 ft 127 kts 186°
2026-05-05 13:43 60.47963 22.23318 2036 ft 130 kts 193°
2026-05-05 13:43 60.47091 22.23077 2355 ft 126 kts 198°
2026-05-05 13:44 60.46244 22.22683 2630 ft 124 kts 206°
2026-05-05 13:44 60.45474 22.21909 2869 ft 123 kts 219°
2026-05-05 13:44 60.44767 22.20972 3125 ft 122 kts 223°
2026-05-05 13:44 60.44088 22.19955 3373 ft 121 kts 225°
2026-05-05 13:45 60.43430 22.18909 3596 ft 122 kts 225°
2026-05-05 13:45 60.42681 22.17992 3777 ft 127 kts 216°
2026-05-05 13:45 60.41855 22.17135 3852 ft 133 kts 216°
2026-05-05 13:45 60.41059 22.16218 3979 ft 135 kts 219°
2026-05-05 13:46 60.40257 22.15150 4021 ft 137 kts 223°
2026-05-05 13:46 60.39472 22.13926 3976 ft 143 kts 225°
2026-05-05 13:46 60.38700 22.12624 3915 ft 144 kts 227°
2026-05-05 13:46 60.37977 22.11279 3998 ft 140 kts 230°
2026-05-05 13:47 60.37262 22.09908 3958 ft 143 kts 232°
2026-05-05 13:47 60.36661 22.08315 3910 ft 141 kts 246°
2026-05-05 13:47 60.36420 22.06421 3814 ft 140 kts 266°
2026-05-05 13:47 60.36420 22.04488 3852 ft 135 kts 275°
2026-05-05 13:48 60.36510 22.02599 3837 ft 136 kts 273°
2026-05-05 13:48 60.36447 22.00686 3874 ft 134 kts 266°
2026-05-05 13:48 60.36354 21.99428 3905 ft 135 kts 262°
2026-05-05 13:48 60.36205 21.97550 3951 ft 135 kts 264°
2026-05-05 13:49 60.36058 21.95711 4019 ft 134 kts 263°
2026-05-05 13:49 60.35922 21.93820 4054 ft 135 kts 265°
2026-05-05 13:49 60.35746 21.91937 4074 ft 137 kts 259°
2026-05-05 13:49 60.35482 21.90072 3967 ft 144 kts 257°
2026-05-05 13:50 60.35208 21.88103 3801 ft 149 kts 258°
2026-05-05 13:50 60.34937 21.86072 3632 ft 149 kts 257°
2026-05-05 13:50 60.34678 21.84057 3516 ft 148 kts 259°
2026-05-05 13:50 60.34444 21.82045 3381 ft 147 kts 261°
2026-05-05 13:51 60.34288 21.80015 3234 ft 147 kts 265°
2026-05-05 13:51 60.34132 21.77978 3089 ft 150 kts 261°
2026-05-05 13:51 60.33897 21.75855 2720 ft 160 kts 259°
2026-05-05 13:51 60.33600 21.73693 2396 ft 160 kts 256°
2026-05-05 13:52 60.33284 21.71558 2095 ft 161 kts 256°
2026-05-05 13:52 60.32976 21.69414 1977 ft 154 kts 259°
2026-05-05 13:52 60.32764 21.67303 1909 ft 154 kts 262°
2026-05-05 13:52 60.32612 21.65177 1820 ft 152 kts 265°
2026-05-05 13:53 60.32543 21.63048 1660 ft 153 kts 269°
2026-05-05 13:53 60.32439 21.60883 1455 ft 157 kts 264°
2026-05-05 13:53 60.32292 21.58716 1352 ft 154 kts 264°
2026-05-05 13:53 60.32176 21.56569 1248 ft 154 kts 267°
2026-05-05 13:54 60.32118 21.54423 1139 ft 152 kts 269°
2026-05-05 13:54 60.32111 21.52337 1144 ft 147 kts 270°
2026-05-05 13:54 60.31953 21.50266 965 ft 155 kts 257°
2026-05-05 13:54 60.31574 21.48194 763 ft 158 kts 247°
2026-05-05 13:55 60.31204 21.46138 618 ft 156 kts 260°
2026-05-05 13:55 60.30984 21.44129 924 ft 135 kts 257°
2026-05-05 13:55 60.30690 21.42260 842 ft 149 kts 254°
2026-05-05 13:55 60.30343 21.40193 582 ft 158 kts 254°
2026-05-05 13:56 60.30040 21.38087 571 ft 154 kts 258°
2026-05-05 13:56 60.29834 21.35984 545 ft 153 kts 264°
2026-05-05 13:56 60.29731 21.33873 595 ft 146 kts 268°
2026-05-05 13:56 60.29688 21.31858 666 ft 144 kts 272°
2026-05-05 13:57 60.29724 21.29800 584 ft 149 kts 276°
2026-05-05 13:57 60.29883 21.27733 573 ft 148 kts 284°
2026-05-05 13:57 60.30181 21.25790 609 ft 144 kts 292°
2026-05-05 13:57 60.30329 21.23802 518 ft 148 kts 267°
2026-05-05 13:58 60.30276 21.21755 549 ft 144 kts 276°
2026-05-05 13:58 60.30509 21.19826 649 ft 141 kts 288°
2026-05-05 13:58 60.30700 21.17876 650 ft 144 kts 276°
2026-05-05 13:58 60.30630 21.15807 509 ft 153 kts 261°
2026-05-05 13:59 60.29592 21.12161 367 ft 162 kts 216°
2026-05-05 13:59 60.28546 21.11235 342 ft 156 kts 205°
2026-05-05 14:00 60.26865 21.09112 565 ft 152 kts 244°
2026-05-05 14:00 60.26538 21.07146 622 ft 145 kts 262°
2026-05-05 14:00 60.26593 21.05097 392 ft 154 kts 288°
2026-05-05 14:00 60.26659 21.02973 239 ft 156 kts 258°
2026-05-05 14:01 60.26465 21.01026 656 ft 127 kts 266°
2026-05-05 14:01 60.26473 20.99098 380 ft 152 kts 278°
2026-05-05 14:01 60.26700 20.96982 276 ft 149 kts 286°
2026-05-05 14:01 60.26923 20.95112 482 ft 138 kts 275°
2026-05-05 14:02 60.26797 20.93095 332 ft 151 kts 257°
2026-05-05 14:02 60.26384 20.91211 476 ft 142 kts 244°
2026-05-05 14:02 60.25969 20.89525 757 ft 135 kts 246°
2026-05-05 14:02 60.25574 20.87813 917 ft 130 kts 252°
2026-05-05 14:03 60.25287 20.86087 1058 ft 135 kts 253°
2026-05-05 14:03 60.24928 20.84305 1150 ft 142 kts 249°
2026-05-05 14:03 60.24546 20.82449 1180 ft 144 kts 250°
2026-05-05 14:03 60.24161 20.80586 1201 ft 142 kts 249°
2026-05-05 14:04 60.23597 20.78916 1216 ft 147 kts 231°
2026-05-05 14:04 60.22843 20.77517 1257 ft 146 kts 234°
2026-05-05 14:04 60.22366 20.75677 1181 ft 150 kts 246°
2026-05-05 14:04 60.21954 20.73765 1235 ft 149 kts 251°
2026-05-05 14:05 60.21718 20.71743 1167 ft 151 kts 263°
2026-05-05 14:05 60.21592 20.69578 849 ft 163 kts 265°
2026-05-05 14:05 60.21364 20.67251 317 ft 173 kts 255°
2026-05-05 14:05 60.21212 20.64999 358 ft 154 kts 269°
2026-05-05 14:06 60.21178 20.63059 796 ft 124 kts 271°
2026-05-05 14:06 60.21206 20.61310 995 ft 129 kts 272°
2026-05-05 14:06 60.21101 20.59541 1165 ft 132 kts 257°
2026-05-05 14:06 60.20816 20.57832 1482 ft 120 kts 252°
2026-05-05 14:07 60.20529 20.56275 1780 ft 115 kts 255°
2026-05-05 14:07 60.20354 20.54763 2081 ft 114 kts 267°
2026-05-05 14:07 60.20426 20.53105 2199 ft 121 kts 284°
2026-05-05 14:07 60.20526 20.51486 2489 ft 116 kts 273°
2026-05-05 14:08 60.20491 20.49829 2639 ft 121 kts 270°
2026-05-05 14:08 60.20434 20.48078 2754 ft 127 kts 269°
2026-05-05 14:08 60.20375 20.46346 2982 ft 125 kts 268°
2026-05-05 14:08 60.20289 20.44552 3030 ft 134 kts 265°
2026-05-05 14:09 60.20172 20.42694 3042 ft 133 kts 264°
2026-05-05 14:09 60.20019 20.40873 2972 ft 131 kts 263°
2026-05-05 14:09 60.19843 20.39082 2798 ft 129 kts 262°
2026-05-05 14:09 60.19652 20.37321 2515 ft 129 kts 258°
2026-05-05 14:10 60.19422 20.35604 2113 ft 125 kts 258°
2026-05-05 14:10 60.19193 20.33917 1681 ft 122 kts 258°
2026-05-05 14:10 60.18958 20.32354 1432 ft 112 kts 254°
2026-05-05 14:10 60.18663 20.30973 1262 ft 99 kts 249°
2026-05-05 14:11 60.18387 20.29799 1007 ft 91 kts 249°
2026-05-05 14:11 60.18119 20.28618 830 ft 96 kts 249°
2026-05-05 14:11 60.17856 20.27368 772 ft 96 kts 253°
2026-05-05 14:11 60.17618 20.26117 737 ft 95 kts 250°
2026-05-05 14:12 60.17118 20.25158 577 ft 106 kts 227°
2026-05-05 14:12 60.16923 20.23863 481 ft 101 kts 271°
2026-05-05 14:12 60.16949 20.22505 491 ft 92 kts 278°
2026-05-05 14:12 60.16951 20.21193 426 ft 95 kts 272°
2026-05-05 14:13 60.16880 20.19885 418 ft 93 kts 265°
2026-05-05 14:13 60.16677 20.18633 420 ft 92 kts 252°
2026-05-05 14:13 60.16440 20.17461 472 ft 90 kts 250°
2026-05-05 14:13 60.16190 20.16288 560 ft 90 kts 253°
2026-05-05 14:14 60.15969 20.15076 673 ft 93 kts 256°
2026-05-05 14:14 60.15778 20.13849 870 ft 93 kts 258°
2026-05-05 14:14 60.15600 20.12614 1069 ft 90 kts 257°
2026-05-05 14:14 60.15409 20.11419 1235 ft 91 kts 257°
2026-05-05 14:15 60.15233 20.10184 1396 ft 91 kts 258°
2026-05-05 14:15 60.15071 20.08936 1500 ft 97 kts 259°
2026-05-05 14:15 60.14926 20.07617 1543 ft 96 kts 264°
2026-05-05 14:15 60.14828 20.06300 1550 ft 96 kts 265°
2026-05-05 14:16 60.14729 20.04976 1549 ft 95 kts 267°
2026-05-05 14:16 60.14673 20.03716 1496 ft 84 kts 270°
2026-05-05 14:16 60.14630 20.02555 1294 ft 85 kts 268°
2026-05-05 14:16 60.14630 20.01418 1142 ft 80 kts 277°
2026-05-05 14:17 60.14693 20.00325 987 ft 76 kts 279°
2026-05-05 14:17 60.14741 19.99249 848 ft 80 kts 276°
2026-05-05 14:17 60.14771 19.98135 741 ft 79 kts 275°
2026-05-05 14:17 60.14802 19.97058 674 ft 76 kts 275°
2026-05-05 14:18 60.14735 19.96015 627 ft 76 kts 256°
2026-05-05 14:18 60.14610 19.94943 526 ft 79 kts 263°
2026-05-05 14:18 60.14533 19.93891 461 ft 75 kts 266°
2026-05-05 14:18 60.14453 19.92890 406 ft 69 kts 268°
2026-05-05 14:19 60.14390 19.91970 379 ft 67 kts 260°
2026-05-05 14:19 60.14036 19.91362 329 ft 72 kts 204°
2026-05-05 14:19 60.13573 19.90992 210 ft 70 kts 207°
2026-05-05 14:19 60.13130 19.90604 98 ft 69 kts 209°
2026-05-05 14:20 60.12706 19.90237 21 ft 61 kts 208°
2026-05-05 14:20 60.12371 19.89949 12 ft 30 kts 201°
2026-05-05 14:20 60.12296 19.89878 11 ft 9 kts 209°
2026-05-05 14:20 60.12295 19.89921 11 ft 9 kts 27°
2026-05-05 14:21 60.12366 19.89985 11 ft 13 kts 23°
2026-05-05 14:21 60.12433 19.90067 11 ft 9 kts 81°
2026-05-05 14:21 60.12410 19.90194 10 ft 11 kts 112°
2026-05-05 14:21 60.12377 19.90344 10 ft 13 kts 114°
2026-05-05 14:22 60.12371 19.90442 11 ft 5 kts 18°
2026-05-05 14:22 60.12379 19.90488 11 ft 6 kts 116°
2026-05-05 14:22 60.12361 19.90593 11 ft 6 kts 97°
2026-05-05 14:22 60.12371 19.90636 11 ft 0 kts 40°